Flag for Bosnia-Herzegovina Weather past 2 weeks in Tuzla, Bosnia-Herzegovina

Now
66 °F

Light rain. Broken clouds.


Feels Like: 66 °F
Forecast: 59 / 84 °F
Wind: 2 mph from North

Location: Tuzla

Current Time: Aug 1, 2014 at 4:49:21 PM

Latest Report: Aug 1, 2014 at 4:30 PM


Visibility: N/A

Pressure: 29.83 "Hg

Humidity: 100%

Dew point: 66 °F

Location of TuzlaLocation

Historic Weather in Tuzla — Graph

°F

Tuzla temperature yesterday

Maximum temperature yesterday: 72 °F (at 12:00 PM)
Minimum temperature yesterday: 61 °F (at 6:00 AM)
Average temperature yesterday: 66 °F

Past Weeks' High & Low Weather Summary

 TemperatureHumidityPressure
High90 °F (Jul 20, 4:00 PM)100% (Jul 17, 9:00 PM)30.07 "Hg (Jul 17, 9:00 PM)
Low55 °F (Jul 25, 6:00 AM)35% (Jul 20, 3:00 PM)29.68 "Hg (Jul 30, 2:30 PM)
Average73 °F80%29.89 "Hg
* Reported Jul 17 3:00 PM — Aug 1 3:30 PM, Tuzla, Weather by CustomWeather, © 2014

Note: Actual official high and low records may vary slightly from our data, if they occured in-between our weather recording intervals... More about our weather records

Advertising

Tuzla weather history for previous 24 hours

 ConditionsComfort  
Time TempWeatherWind HumidityBarometerVisibility
3:30 PM
Aug 1
72 °FPartly sunny.2 mph88%29.83 "HgN/A
3:00 PM72 °FBroken clouds.3 mph88%29.83 "HgN/A
2:30 PM72 °FPartly sunny.5 mph94%29.83 "HgN/A
2:00 PM70 °FPartly sunny.5 mph100%29.83 "HgN/A
1:30 PM68 °FMostly cloudy.3 mph100%29.83 "HgN/A
1:00 PM66 °FMostly cloudy.5 mph100%29.86 "HgN/A
12:30 PM66 °FMostly cloudy.5 mph100%29.86 "HgN/A
12:00 PM66 °FPartly sunny.5 mph100%29.86 "HgN/A
11:30 AM66 °FPartly sunny.3 mph100%29.86 "HgN/A
11:00 AM66 °FDrizzle. Fog.3 mph100%29.86 "Hg2 mi
10:30 AM66 °FLight rain. Fog.3 mph100%29.86 "Hg2 mi
10:00 AM68 °FBroken clouds.2 mph100%29.86 "HgN/A
9:30 AM66 °FBroken clouds.1 mph100%29.83 "HgN/A
9:00 AM66 °FPartly sunny.1 mph100%29.83 "HgN/A
8:30 AM64 °FMostly cloudy.3 mph100%29.83 "Hg4 mi
8:00 AM64 °FFog.2 mph100%29.83 "Hg3 mi
7:30 AM64 °FFog.1 mph100%29.83 "Hg3 mi
7:00 AM64 °FFog.1 mph100%29.83 "Hg3 mi
6:30 AM64 °FPassing clouds.1 mph100%29.83 "Hg4 mi
6:00 AM64 °FPassing clouds.1 mph100%29.83 "Hg4 mi
9:00 PM
Jul 31
64 °FFog.2 mph100%29.83 "Hg2 mi
8:30 PM64 °FFog.1 mph100%29.83 "Hg2 mi
8:00 PM66 °FLight rain. Fog.2 mph100%29.83 "Hg2 mi
7:30 PM66 °FBroken clouds.5 mph100%29.83 "HgN/A
7:00 PM66 °FBroken clouds.5 mph100%29.83 "HgN/A
6:30 PM66 °FBroken clouds.6 mph100%29.80 "HgN/A
6:00 PM66 °FBroken clouds.5 mph100%29.80 "HgN/A
5:30 PM66 °FLight rain. Broken clouds.5 mph100%29.80 "HgN/A
5:00 PM66 °FLight rain. Broken clouds.6 mph100%29.80 "HgN/A
4:30 PM66 °FBroken clouds.7 mph100%29.83 "HgN/A
4:00 PM66 °FBroken clouds.3 mph100%29.83 "HgN/A
Weather by CustomWeather, © 2014

See weather overviewHow to use our weather pages